Find Starlink 38000

NORAD ID: 100428 Int'l Des: 2026-192 Owner: SPXS Country: US Constellation: starlink operational

現在のビュー

3D地球を読み込み中...

About Starlink 38000

Starlink 38000 (NORAD 100428) is a starlink constellation satellite launched Aug 21, 2026 by SPXS of US. with a mass of 575.00 kg.

次回通過

Passes for default location (London). Set your location on the main map for personalized predictions.

高度履歴

Loading altitude history...

軌道要素

1 A0428U 26192AA 26262.68223995 .00020727 00000-0 37949-3 0 9999
2 A0428 53.1589 310.6179 0001294 62.5816 297.5324 15.49326837 5777
Epoch: Sep 19, 2026 • Age: 23 hours

現在のステータス

高度 427.3 km
遠地点 / 近地点 N/A
速度 7.65 km/s
衛星直下点 -27.02°S, 75.6°W
打ち上げ日 Aug 21, 2026
運用期間 29 days
タイプ internet

技術仕様

分類 Payload
質量 575.00 kg
乾燥質量 530.00 kg
長さ 0.30 m
スパン 29.00 m
形状 ? Box + pan
製造者 SPXS
バスタイプ Starlink V2MO
フェーズステータス In Orbit
所有者/国 SPXS/US

Most Searched